Flag for Austria Weather past 2 weeks in Wolfsberg, Carinthia, Austria

Now
39 °F

Clear.


Feels Like: 39 °F
Forecast: 43 / 63 °F
Wind: 2 mph from Northwest

Location: Zeltweg

Current Time: Sep 24, 2014 at 2:37:37 AM

Latest Report: Sep 23, 2014 at 10:50 PM


Visibility: 19 mi

Pressure: 30.15 "Hg

Humidity: 87%

Dew point: 36 °F

Location of WolfsbergLocation

Historic Weather in Wolfsberg — Graph

°F

Wolfsberg temperature yesterday

Maximum temperature yesterday: 57 °F (at 3:20 PM)
Minimum temperature yesterday: 39 °F (at 10:50 PM)
Average temperature yesterday: 49 °F

Past Weeks' High & Low Weather Summary

 TemperatureHumidityPressure
High75 °F (Sep 19, 3:20 PM)100% (Sep 9, 4:50 AM)30.15 "Hg (Sep 9, 4:50 AM)
Low39 °F (Sep 23, 10:50 PM)41% (Sep 22, 4:20 PM)29.89 "Hg (Sep 12, 4:50 AM)
Average58 °F80%30.03 "Hg
* Reported Sep 8 10:50 PM — Sep 23 10:50 PM, Wolfsberg, Weather by CustomWeather, © 2014

Note: Actual official high and low records may vary slightly from our data, if they occured in-between our weather recording intervals... More about our weather records

Advertising

Wolfsberg weather history for previous 24 hours

 ConditionsComfort  
Time TempWeatherWind HumidityBarometerVisibility
10:50 PM
Sep 23
39 °FClear.2 mph87%30.15 "Hg19 mi
9:50 PM41 °FClear.1 mph87%30.15 "Hg19 mi
9:20 PM43 °FClear.3 mph81%30.12 "Hg19 mi
8:50 PM43 °FPassing clouds.3 mph81%30.12 "Hg19 mi
8:20 PM45 °FPassing clouds.2 mph76%30.12 "Hg19 mi
7:50 PM46 °FPassing clouds.3 mph71%30.09 "Hg25 mi
7:20 PM46 °FPassing clouds.6 mph71%30.09 "Hg25 mi
6:50 PM52 °FPassing clouds.5 mph58%30.09 "Hg25 mi
6:20 PM54 °FPassing clouds.8 mph54%30.09 "Hg25 mi
5:50 PM55 °FPassing clouds.2 mph47%30.07 "Hg25 mi
5:20 PM57 °FPassing clouds.2 mph44%30.07 "Hg25 mi
4:50 PM57 °FPassing clouds.7 mph44%30.09 "Hg25 mi
4:20 PM57 °FPassing clouds.10 mph48%30.09 "Hg25 mi
3:50 PM57 °FPassing clouds.14 mph48%30.07 "Hg25 mi
3:20 PM57 °FPassing clouds.16 mph44%30.09 "Hg25 mi
2:50 PM55 °FPassing clouds.17 mph51%30.09 "Hg25 mi
2:20 PM55 °FPassing clouds.23 mph55%30.09 "Hg25 mi
1:50 PM54 °FScattered clouds.23 mph54%30.09 "Hg19 mi
1:20 PM54 °FPartly sunny.15 mph54%30.09 "Hg19 mi
12:50 PM52 °FPartly sunny.16 mph58%30.09 "Hg19 mi
12:20 PM52 °FPartly sunny.12 mph58%30.09 "Hg19 mi
11:50 AM52 °FBroken clouds.15 mph58%30.09 "Hg19 mi
11:20 AM52 °FBroken clouds.17 mph58%30.07 "Hg19 mi
10:50 AM50 °FBroken clouds.8 mph67%30.07 "Hg19 mi
10:20 AM48 °FBroken clouds.3 mph71%30.07 "Hg19 mi
9:50 AM46 °FScattered clouds.5 mph76%30.07 "Hg19 mi
9:20 AM48 °FPassing clouds.5 mph66%30.04 "Hg19 mi
8:50 AM46 °FPassing clouds.7 mph71%30.04 "Hg19 mi
8:20 AM46 °FPassing clouds.5 mph71%30.04 "Hg12 mi
7:50 AM45 °FPassing clouds.5 mph76%30.01 "Hg12 mi
7:20 AM43 °FSprinkles. Passing clouds.10 mph81%30.01 "Hg12 mi
6:50 AM43 °FSprinkles. Partly cloudy.12 mph81%30.01 "Hg9 mi
5:50 AM43 °FLight rain. Passing clouds.12 mph76%29.98 "Hg6 mi
4:50 AM41 °FPassing clouds.2 mph81%29.98 "Hg6 mi
Weather by CustomWeather, © 2014

See weather overviewHow to use our weather pages